Lexington Weather

Lexington, Massachusetts, USA

32°F
11/15/2019 3:25am 
  • Lexington Conditions: Clear
  • Temperature: 32.0°F / 0.0°CColder 0.2°F than last hour.
  • Dew Point: 28.9°FDecreased 0.9°Fsince last hour.
  • Relative Humidity: 88%Decreased 3.0% since last hour.
  • Wind: Calm, 10-min avg: Calm, gust: 4 mph
  • Barometer: 30.16 inFalling 0.02  inHg/hr Falling Slowly
  • Visibility: 10 miles
  • Snow Today: 0.0 in
  •   

Regional Weather Roundup
for Boston / Norton, MA

        
000
ASUS41 KBOX 132200
RWRBOX

REGIONAL WEATHER ROUNDUP
NATIONAL WEATHER SERVICE BOSTON/NORTON MA
500 PM EST WED NOV 13 2019

NOTE:  "FAIR" INDICATES FEW OR NO CLOUDS BELOW 12,000 FEET WITH NO 
SIGNIFICANT WEATHER AND/OR OBSTRUCTIONS TO VISIBILITY.

MAZALL-132300-
EASTERN MASSACHUSETTS
  
CITY           SKY/WX    TMP DP  RH WIND       PRES   REMARKS
BOSTON         FAIR      30   3  31 NW12G23   30.33R WCI  20          
BEVERLY        FAIR      26   5  40 NW16G24   30.31R WCI  14          
LAWRENCE       FAIR      25   5  42 NW8       30.34R WCI  16          
BEDFORD        FAIR      26   2  35 NW9       30.31R WCI  17          
BLUE HILL        N/A     24   3  40 NW12G21   30.27R WCI  13          
NORWOOD        FAIR      29   3  33 NW6       30.33R WCI  23          
MARSHFIELD     NOT AVBL                                               
PLYMOUTH       FAIR      27   5  39 NW8       30.31R WCI  19          
TAUNTON        FAIR      29   1  30 NW12G17   30.32R WCI  19          
NEW BEDFORD    FAIR      28   4  35 NW5       30.31R WCI  23          
$$

MAZALL-132300-
CAPE COD AND THE ISLANDS
  
CITY           SKY/WX    TMP DP  RH WIND       PRES   REMARKS
FALMOUTH       CLEAR     27   1  33 NW15      30.30R WCI  15          
HYANNIS        NOT AVBL                                               
CHATHAM        FAIR      30  13  49 NW10G17   30.29R WCI  21          
PROVINCETOWN   FAIR      30  16  56 NW22G31   30.30R WCI  17          
NANTUCKET      FAIR      31   9  39 N15G22    30.30R WCI  20          
MARTHAS VNYRD  FAIR      29   4  34 N12       30.31R WCI  19          
$$
 
MAZALL-132300-
CENTRAL AND WESTERN MASSACHUSETTS
  
CITY           SKY/WX    TMP DP  RH WIND       PRES   REMARKS
WORCESTER      FAIR      22   0  38 NW10      30.27R WCI  11          
FITCHBURG      FAIR      24   3  40 NW10      30.32R WCI  14          
ORANGE         FAIR      24   2  38 NW5       30.33R WCI  18          
SPRINGFIELD    PTCLDY    24   2  37 NW8       30.34R WCI  15          
WESTFIELD      FAIR      23   3  42 NW8       30.36R WCI  14          
NORTH ADAMS    FAIR      19   6  57 W10       30.34S WCI   7          
PITTSFIELD     FAIR      18   5  57 NW7       30.29R WCI   9          
$$
 
RIZALL-132300-
RHODE ISLAND
  
CITY           SKY/WX    TMP DP  RH WIND       PRES   REMARKS
PROVIDENCE     FAIR      28   4  35 NW7       30.33R WCI  21          
NEWPORT        FAIR      28   4  35 NW10      30.31R WCI  19          
BLOCK ISLAND   FAIR      27   7  42 N10       30.33R WCI  17          
SMITHFIELD     FAIR      25   5  42 NW8       30.30R WCI  16          
WESTERLY       FAIR      29   1  30 VRB5      30.34R WCI  24          
$$
 
CTZALL-132300-
CONNECTICUT
  
CITY           SKY/WX    TMP DP  RH WIND       PRES   REMARKS
BRADLEY INTL   FAIR      26   3  37 NW8       30.36R WCI  18          
HARTFORD       FAIR      27   3  35 N6        30.38R WCI  20          
BRIDGEPORT     FAIR      30   3  31 NW8       30.37R WCI  22          
DANBURY        FAIR      26   3  37 NW5       30.35R WCI  20          
GROTON         NOT AVBL                                               
NEW HAVEN      FAIR      31   2  29 NW12      30.37R WCI  22          
CHESTER        NOT AVBL                                               
MERIDEN        FAIR      27   3  35 N8        30.37R WCI  19          
WILLIMANTIC    FAIR      26   3  37 VRB6      30.35R WCI  19          
OXFORD         FAIR      24   5  44 NW10      30.33R WCI  14          
$$

MEZ002-015-021-024-NHZ003-005-008-011-012-014-VTZ005-008-132300-
NORTHERN NEW ENGLAND
  
CITY           SKY/WX    TMP DP  RH WIND       PRES   REMARKS
PORTLAND ME    FAIR      22   9  57 W10       30.30R WCI  11          
BANGOR ME      FAIR      20   9  62 NW9       30.22R WCI   9          
CONCORD NH     FAIR      22   5  48 NW10      30.32R WCI  11          
MANCHESTER NH  FAIR      25   4  40 NW9       30.32R WCI  15          
NASHUA NH      FAIR      24   6  46 NW13      30.33R WCI  12          
PORTSMOUTH NH  PTCLDY    23   3  42 W14G21    30.30R WCI  11          
JAFFREY NH     FAIR      21   3  45 W6        30.28R WCI  13          
KEENE NH       FAIR      20   5  52 NW3       30.35R                  
BURLINGTON VT  FAIR      18   6  59 N5        30.36R WCI  11          
MT. WASHINGTON FOG       -8  -8 100 NW56G70     N/A  VSB 1/4 WCI -43  
$$

NYZ052-076-132300-
EASTERN NEW YORK
  
CITY           SKY/WX    TMP DP  RH WIND       PRES   REMARKS
ALBANY         FAIR      22   7  52 W14       30.39R WCI   9          
NEW YORK CITY  FAIR      33   8  35 N10       30.36S WCI  25          
$$
 
ANZALL-132300-
MARINE OBSERVATIONS
  
STATION/POSITION TIME  TEMP    WIND        PRES    VSBY  WAVE
                       AIR SEA DIR/SP/G                  HT/PER
                 (UTC) (F)     (DEG/KT/KT) (MB)    (MI)  (FT/S)
BOSTON BUOY      2050   31 52  310/ 19/ 27 1024.5          3/ 4
BUZZARDS BAY     2100   31     320/ 19/ 22 1026.2R
NANTUCKET SOUND  NOT AVBL
MASS BAY-STELLWA 2104   31 51  320/ 19/ 27 1025.2R  1 7/8  3/ 4
ISLE OF SHOALS   2100   26     310/ 23/ 24 1025.1R
S OF BLOCK IS    2130      58                N/A           4/ 6
$$

......................KEY.........................
  SKY/WX - SKY CONDITION/PRESENT WEATHER
  TMP    - TEMPERATURE IN FAHRENHEIT
  DWPT   - DEWPOINT IN FAHRENHEIT
  RH     - RELATIVE HUMIDITY IN PERCENT
  WIND   - DIRECTION AND SPEED IN MPH
  PRES   - MEAN SEA LEVEL PRESSURE IN INCHES OF HG
  WCI    - WIND CHILL INDEX
  VSB    - VISIBILITY IN MILES
  HX     - HEAT INDEX
  TC     - TEMPERATURE IN CELSIUS
  VRB    - VARIABLE WIND DIRECTION
  N/A    - NOT AVAILABLE
  
      

Other recent Regional Weather Roundups

Fri Nov 15, 3:10am

Fri Nov 15, 3:00am

Fri Nov 15, 2:10am

Fri Nov 15, 2:00am

Fri Nov 15, 1:10am

Fri Nov 15, 1:00am

Fri Nov 15, 12:10am

Fri Nov 15, 12:00am

Thu Nov 14, 11:10pm

Thu Nov 14, 11:00pm

Thu Nov 14, 10:10pm

Thu Nov 14, 10:00pm

Thu Nov 14, 9:10pm

Thu Nov 14, 9:00pm

Thu Nov 14, 8:10pm

Thu Nov 14, 8:00pm

Thu Nov 14, 7:10pm

Thu Nov 14, 7:00pm

Thu Nov 14, 6:10pm

Thu Nov 14, 6:01pm

Thu Nov 14, 5:10pm

Thu Nov 14, 5:00pm

Thu Nov 14, 4:10pm

Thu Nov 14, 4:00pm

Thu Nov 14, 3:10pm

Thu Nov 14, 3:00pm

Thu Nov 14, 2:10pm

Thu Nov 14, 2:00pm

Thu Nov 14, 1:10pm

Thu Nov 14, 1:00pm

Thu Nov 14, 12:10pm

Thu Nov 14, 12:01pm

Thu Nov 14, 11:10am

Thu Nov 14, 11:00am

Thu Nov 14, 10:10am

Thu Nov 14, 10:01am

Thu Nov 14, 9:10am

Thu Nov 14, 9:00am

Thu Nov 14, 8:10am

Thu Nov 14, 8:00am

Thu Nov 14, 7:10am

Thu Nov 14, 7:00am

Thu Nov 14, 6:10am

Thu Nov 14, 6:00am

Thu Nov 14, 5:10am

Thu Nov 14, 5:00am

Thu Nov 14, 4:10am

Thu Nov 14, 4:00am

Thu Nov 14, 3:10am

Thu Nov 14, 3:00am

Thu Nov 14, 2:10am

Thu Nov 14, 2:00am

Thu Nov 14, 1:10am

Thu Nov 14, 1:00am

Thu Nov 14, 12:10am

Thu Nov 14, 12:00am

Wed Nov 13, 11:10pm

Wed Nov 13, 11:00pm

Wed Nov 13, 10:10pm

Wed Nov 13, 10:00pm

Wed Nov 13, 9:10pm

Wed Nov 13, 9:00pm

Wed Nov 13, 8:10pm

Wed Nov 13, 8:00pm

Wed Nov 13, 7:10pm

Wed Nov 13, 7:00pm

Wed Nov 13, 6:10pm

Wed Nov 13, 6:01pm

Wed Nov 13, 5:10pm

Wed Nov 13, 4:10pm

Wed Nov 13, 4:00pm

Wed Nov 13, 3:10pm

Wed Nov 13, 3:01pm

Wed Nov 13, 2:10pm

Wed Nov 13, 2:01pm

Wed Nov 13, 1:10pm

Wed Nov 13, 1:00pm

Wed Nov 13, 12:10pm

Wed Nov 13, 12:01pm

Wed Nov 13, 11:10am

Wed Nov 13, 11:00am

Wed Nov 13, 10:10am

Wed Nov 13, 10:00am

Wed Nov 13, 9:10am

Wed Nov 13, 9:00am

Wed Nov 13, 8:10am

Wed Nov 13, 8:00am

Wed Nov 13, 7:10am

Wed Nov 13, 7:00am

Wed Nov 13, 6:10am

Wed Nov 13, 6:00am

Wed Nov 13, 5:10am

Wed Nov 13, 5:00am

Wed Nov 13, 4:10am

Wed Nov 13, 4:00am

Wed Nov 13, 3:10am

Wed Nov 13, 3:00am

Wed Nov 13, 2:10am

Wed Nov 13, 2:00am

Wed Nov 13, 1:10am

Wed Nov 13, 1:00am

Wed Nov 13, 12:10am

Wed Nov 13, 12:00am

Tue Nov 12, 11:10pm

Tue Nov 12, 11:00pm

Tue Nov 12, 10:10pm

Tue Nov 12, 10:00pm

Tue Nov 12, 9:10pm

Tue Nov 12, 9:00pm

Tue Nov 12, 8:10pm

Tue Nov 12, 8:00pm

Tue Nov 12, 7:10pm

Tue Nov 12, 7:01pm

Tue Nov 12, 6:10pm

Tue Nov 12, 6:01pm

Tue Nov 12, 5:10pm

Tue Nov 12, 5:01pm

Tue Nov 12, 4:10pm

Tue Nov 12, 4:01pm

Tue Nov 12, 3:10pm

Tue Nov 12, 3:00pm

Tue Nov 12, 2:10pm

Tue Nov 12, 2:00pm

Tue Nov 12, 1:10pm

Tue Nov 12, 1:00pm

Tue Nov 12, 12:10pm

Tue Nov 12, 12:00pm

Tue Nov 12, 11:10am

Tue Nov 12, 11:00am

Tue Nov 12, 10:10am

Tue Nov 12, 10:01am

Tue Nov 12, 9:10am

Tue Nov 12, 9:00am

Tue Nov 12, 8:10am

Tue Nov 12, 8:00am

Tue Nov 12, 7:10am

Tue Nov 12, 7:00am

Tue Nov 12, 6:10am

Tue Nov 12, 6:00am

Tue Nov 12, 5:10am

Tue Nov 12, 5:01am

Tue Nov 12, 4:10am

Tue Nov 12, 4:00am

Meta data:

ID: 94a3fa91-8f52-4957-94e0-dae4ba10b204
Link: https://api.weather.gov/products/94a3fa91-8f52-4957-94e0-dae4ba10b204